QPF
0.00 0.00 0.00 0.00 0.00 0.00 0.00 0.00 0.00 0.00 0.00 0.00 0.00 0.00 0.00 0.00 0.00 0.00 0.00 0.00 0.00 0.00 0.00 0.00 0.00 0.00 0.01 0.01 0.00 0.00 0.00 0.00 0.00 0.00 0.00 0.00 0.00 0.00 0.00 0.00 0.00 0.00 0.00 0.00
0.00 0.00 0.01 0.00 0.01 0.00 0.00 0.00 0.00 0.00 0.00 0.00 0.00 0.00 0.00 0.00 0.00 0.00 0.00 0.00 0.00 0.00 0.00 0.00 0.00 0.00 0.00 0.00 0.00 0.00 0.00 0.00 0.00 0.00 0.00 0.00 0.00 0.00 0.00 0.00 0.00 0.00 0.00 0.00
0.01 0.01 0.01 0.00 0.00 0.00 0.00 0.00 0.00 0.00 0.00 0.00 0.00 0.00 0.00 0.00 0.00 0.00 0.00 0.00 0.00 0.00 0.00 0.00 0.00 0.00 0.00 0.00 0.00 0.02 0.01 0.00 0.00 0.00 0.00 0.00 0.00 0.00 0.00 0.00 0.00 0.00 0.00 0.00
0.00 0.00 0.00 0.00 0.01 0.00 0.00 0.00 0.00 0.00 0.00 0.00 0.00 0.00 0.00 0.00 0.00 0.00 0.00 0.00 0.00 0.00 0.00 0.00 0.00 0.00 0.00 0.00 0.00 0.00 0.00 0.00 0.00 0.00 0.00 0.00 0.00 0.00 0.00 0.00 0.00 0.00 0.00 0.00
0.01 0.00 0.00 0.01 0.02 0.00 0.00 0.00 0.00 0.00 0.00 0.00 0.00 0.00 0.00 0.00 0.00 0.00 0.00 0.00 0.00 0.00 0.00 0.00 0.00 0.00 0.00 0.00 0.00 0.00 0.00 0.00 0.00 0.00 0.00 0.00 0.00 0.00 0.00 0.00 0.00 0.00 0.00 0.00
0.00 0.00 0.00 0.01 0.02 0.00 0.00 0.00 0.00 0.00 0.00 0.00 0.00 0.00 0.00 0.00 0.00 0.00 0.00 0.00 0.00 0.00 0.00 0.00 0.00 0.00 0.00 0.00 0.00 0.00 0.00 0.00 0.00 0.00 0.00 0.00 0.00 0.00 0.00 0.00 0.00 0.00 0.00 0.00
0.01 0.00 0.02 0.03 0.03 0.03 0.00 0.00 0.00 0.00 0.00 0.00 0.00 0.00 0.00 0.00 0.00 0.00 0.00 0.00 0.00 0.00 0.00 0.00 0.00 0.00 0.00 0.00 0.00 0.00 0.00 0.00 0.00 0.00 0.00 0.00 0.00 0.00 0.00 0.00 0.00 0.00 0.00 0.00
0.02 0.00 0.02 0.02 0.02 0.03 0.01 0.00 0.00 0.00 0.00 0.00 0.00 0.00 0.00 0.00 0.00 0.00 0.00 0.00 0.00 0.00 0.00 0.00 0.00 0.00 0.00 0.00 0.00 0.00 0.00 0.00 0.00 0.00 0.00 0.00 0.00 0.00 0.00 0.00 0.00 0.00 0.00 0.00
0.01 0.02 0.01 0.00 0.00 0.00 0.01 0.01 0.01 0.01 0.01 0.00 0.00 0.00 0.00 0.00 0.00 0.00 0.00 0.00 0.00 0.00 0.00 0.00 0.00 0.00 0.00 0.00 0.00 0.00 0.00 0.00 0.00 0.00 0.00 0.00 0.00 0.00 0.00 0.00 0.00 0.00 0.00 0.00
0.02 0.01 0.00 0.00 0.00 0.01 0.03 0.00 0.01 0.01 0.01 0.00 0.00 0.00 0.00 0.00 0.00 0.00 0.00 0.00 0.00 0.00 0.00 0.00 0.00 0.00 0.00 0.00 0.00 0.00 0.00 0.00 0.00 0.00 0.00 0.00 0.00 0.00 0.00 0.00 0.00 0.00 0.00 0.00
0.00 0.00 0.00 0.01 0.02 0.02 0.05 0.00 0.01 0.01 0.00 0.00 0.00 0.00 0.00 0.00 0.00 0.00 0.00 0.00 0.00 0.00 0.00 0.00 0.00 0.00 0.00 0.00 0.00 0.00 0.00 0.00 0.00 0.00 0.00 0.00 0.00 0.00 0.00 0.00 0.00 0.00 0.00 0.00
0.00 0.01 0.02 0.02 0.01 0.02 0.03 0.00 0.00 0.02 0.03 0.01 0.00 0.00 0.00 0.00 0.00 0.00 0.00 0.00 0.00 0.00 0.00 0.00 0.00 0.00 0.00 0.00 0.00 0.00 0.00 0.00 0.00 0.00 0.00 0.00 0.00 0.00 0.00 0.00 0.00 0.00 0.00 0.00
0.00 0.00 0.01 0.01 0.01 0.00 0.02 0.00 0.00 0.00 0.01 0.00 0.00 0.00 0.00 0.00 0.00 0.00 0.00 0.00 0.00 0.00 0.00 0.00 0.00 0.00 0.00 0.00 0.00 0.00 0.00 0.00 0.00 0.00 0.00 0.00 0.00 0.00 0.00 0.00 0.00 0.00 0.00 0.00
0.00 0.00 0.01 0.01 0.00 0.01 0.00 0.00 0.00 0.01 0.01 0.00 0.00 0.00 0.00 0.00 0.00 0.00 0.00 0.00 0.00 0.00 0.00 0.00 0.00 0.00 0.00 0.00 0.00 0.00 0.00 0.00 0.00 0.00 0.00 0.00 0.00 0.00 0.00 0.00 0.00 0.00 0.00 0.00
0.00 0.01 0.01 0.00 0.00 0.00 0.00 0.00 0.00 0.00 0.01 0.00 0.00 0.00 0.00 0.00 0.00 0.00 0.00 0.00 0.00 0.00 0.00 0.00 0.00 0.00 0.00 0.00 0.00 0.00 0.00 0.00 0.00 0.00 0.00 0.00 0.00 0.00 0.00 0.00 0.00 0.00 0.00 0.00
0.00 0.01 0.00 0.00 0.00 0.01 0.00 0.00 0.00 0.00 0.00 0.00 0.00 0.00 0.00 0.00 0.00 0.00 0.00 0.00 0.00 0.00 0.00 0.00 0.00 0.00 0.00 0.00 0.00 0.00 0.00 0.00 0.00 0.00 0.00 0.00 0.00 0.00 0.00 0.00 0.00 0.00 0.00 0.00
0.00 0.02 0.01 0.00 0.00 0.00 0.00 0.00 0.00 0.01 0.00 0.00 0.00 0.00 0.00 0.00 0.00 0.00 0.00 0.00 0.00 0.00 0.00 0.00 0.00 0.00 0.00 0.00 0.00 0.00 0.00 0.00 0.00 0.00 0.00 0.00 0.00 0.00 0.00 0.00 0.00 0.00 0.00 0.00
0.00 0.01 0.02 0.00 0.00 0.00 0.00 0.00 0.00 0.00 0.00 0.00 0.00 0.00 0.00 0.00 0.00 0.00 0.00 0.00 0.00 0.00 0.00 0.00 0.00 0.00 0.00 0.00 0.00 0.00 0.00 0.00 0.00 0.00 0.00 0.00 0.00 0.00 0.00 0.00 0.00 0.00 0.00 0.00
0.00 0.02 0.01 0.00 0.00 0.00 0.00 0.00 0.00 0.00 0.00 0.00 0.00 0.00 0.00 0.00 0.00 0.00 0.00 0.00 0.00 0.00 0.00 0.00 0.00 0.00 0.00 0.00 0.00 0.00 0.00 0.00 0.00 0.00 0.00 0.00 0.00 0.00 0.00 0.00 0.00 0.00 0.00 0.00
0.00 0.00 0.00 0.00 0.00 0.00 0.00 0.00 0.00 0.00 0.00 0.00 0.00 0.00 0.00 0.00 0.00 0.00 0.00 0.00 0.00 0.00 0.00 0.00 0.00 0.00 0.00 0.00 0.00 0.00 0.00 0.00 0.00 0.00 0.00 0.00 0.00 0.00 0.00 0.00 0.00 0.00 0.00 0.00
0.00 0.00 0.00 0.00 0.00 0.00 0.00 0.00 0.00 0.00 0.00 0.00 0.00 0.00 0.00 0.00 0.00 0.00 0.00 0.00 0.00 0.00 0.00 0.00 0.00 0.00 0.00 0.00 0.00 0.00 0.00 0.00 0.00 0.00 0.00 0.00 0.00 0.00 0.00 0.00 0.00 0.00 0.00 0.00
0.00 0.00 0.00 0.00 0.00 0.00 0.00 0.00 0.00 0.00 0.00 0.00 0.00 0.00 0.00 0.00 0.00 0.00 0.00 0.00 0.00 0.00 0.00 0.00 0.00 0.00 0.00 0.00 0.00 0.00 0.00 0.00 0.00 0.00 0.00 0.00 0.00 0.00 0.00 0.00 0.00 0.00 0.00 0.00
0.00 0.00 0.00 0.00 0.00 0.00 0.00 0.00 0.00 0.00 0.00 0.00 0.00 0.00 0.00 0.00 0.00 0.00 0.00 0.00 0.00 0.00 0.00 0.00 0.00 0.00 0.00 0.00 0.00 0.00 0.00 0.00 0.00 0.00 0.00 0.00 0.00 0.00 0.00 0.00 0.00 0.00 0.00 0.00
0.00 0.00 0.00 0.00 0.00 0.00 0.00 0.00 0.00 0.00 0.00 0.00 0.00 0.00 0.00 0.00 0.00 0.00 0.00 0.00 0.00 0.00 0.00 0.00 0.00 0.00 0.00 0.00 0.00 0.00 0.00 0.00 0.00 0.00 0.00 0.00 0.00 0.00 0.00 0.00 0.00 0.00 0.00 0.00
0.00 0.00 0.00 0.00 0.00 0.00 0.00 0.00 0.00 0.00 0.00 0.00 0.00 0.00 0.00 0.00 0.00 0.00 0.00 0.00 0.00 0.00 0.00 0.00 0.00 0.00 0.00 0.00 0.00 0.00 0.00 0.00 0.00 0.00 0.00 0.00 0.00 0.00 0.00 0.00 0.00 0.00 0.00 0.00
0.00 0.00 0.00 0.00 0.00 0.00 0.00 0.00 0.00 0.00 0.00 0.00 0.00 0.00 0.00 0.00 0.00 0.00 0.00 0.00 0.00 0.00 0.00 0.00 0.00 0.00 0.00 0.00 0.00 0.00 0.00 0.00 0.00 0.00 0.00 0.00 0.00 0.00 0.00 0.00 0.00 0.00 0.00 0.00
0.00 0.00 0.00 0.00 0.00 0.00 0.00 0.00 0.00 0.00 0.00 0.00 0.00 0.00 0.00 0.00 0.00 0.00 0.00 0.00 0.00 0.00 0.00 0.00 0.00 0.00 0.00 0.00 0.00 0.00 0.00 0.00 0.00 0.00 0.00 0.00 0.00 0.00 0.00 0.00 0.00 0.00 0.00 0.00
MSLP
1027.18 1026.80 1026.31 1025.99 1025.43 1025.00 1025.08 1025.79 1025.53 1024.19 1023.60 1025.07 1026.55 1027.02 1026.58 1026.13 1025.63 1025.46 1025.62 1025.69 1025.88 1026.26 1026.65 1026.96 1027.00 1026.80 1026.22 1026.04 1025.99 1026.25 1026.68 1027.31 1026.98 1025.90 1025.50 1025.20 1025.43 1025.54 1024.79 1023.29 1021.36 1021.00 1021.50 1024.73
1027.09 1026.76 1026.37 1026.05 1025.69 1025.50 1026.11 1026.92 1026.50 1024.79 1024.53 1026.33 1027.40 1027.30 1026.96 1026.46 1026.03 1025.86 1025.84 1025.87 1025.89 1026.20 1026.87 1027.24 1026.70 1026.30 1025.78 1025.58 1025.68 1025.72 1026.39 1027.40 1027.98 1027.00 1027.00 1026.63 1027.01 1027.28 1026.53 1025.04 1024.36 1024.26 1024.57 1026.56
1026.99 1026.63 1026.32 1026.05 1025.78 1025.58 1026.23 1027.25 1027.28 1026.67 1026.81 1027.72 1027.85 1027.85 1027.37 1026.75 1026.00 1025.79 1025.92 1025.99 1026.09 1026.45 1026.79 1026.95 1026.83 1026.34 1025.79 1025.42 1025.34 1025.30 1025.81 1027.24 1028.26 1028.76 1028.82 1029.00 1028.83 1028.63 1027.63 1026.09 1025.78 1026.69 1027.43 1028.37
1026.84 1026.61 1026.31 1025.99 1025.83 1025.71 1026.27 1027.49 1028.08 1028.26 1028.24 1028.12 1028.15 1028.11 1027.59 1026.87 1026.41 1026.09 1026.02 1026.00 1026.26 1026.70 1027.02 1026.98 1026.95 1026.45 1026.01 1025.49 1025.30 1025.60 1026.31 1027.45 1028.26 1028.68 1029.19 1029.48 1029.94 1029.92 1029.37 1028.69 1028.46 1028.52 1029.65 1029.91
1026.75 1026.35 1026.00 1025.83 1025.84 1026.00 1026.72 1027.59 1028.02 1028.55 1028.27 1028.14 1028.00 1027.71 1027.27 1026.60 1026.02 1026.14 1026.08 1026.27 1026.26 1026.57 1027.04 1026.90 1026.79 1026.68 1026.57 1026.17 1025.81 1026.21 1026.87 1027.68 1028.36 1028.96 1029.16 1029.73 1030.33 1030.86 1030.81 1030.64 1030.73 1030.88 1031.05 1031.06
1026.53 1026.14 1025.93 1025.82 1025.61 1025.87 1026.70 1027.23 1027.43 1027.51 1027.34 1027.53 1027.77 1027.30 1026.53 1025.91 1025.81 1025.73 1025.58 1026.00 1026.36 1026.32 1025.94 1025.97 1025.97 1026.06 1026.13 1026.18 1026.42 1026.82 1027.43 1028.06 1028.87 1029.27 1029.46 1030.15 1031.08 1031.99 1032.20 1032.48 1032.55 1032.44 1032.45 1032.71
1026.24 1025.99 1025.76 1025.69 1025.31 1025.41 1025.95 1026.24 1026.38 1026.89 1026.36 1026.50 1026.12 1025.69 1025.68 1025.46 1025.67 1025.63 1025.49 1025.78 1026.11 1025.60 1025.44 1025.57 1025.61 1026.06 1026.06 1026.23 1026.47 1026.94 1027.59 1028.36 1029.22 1030.15 1030.62 1031.91 1032.83 1032.88 1032.99 1033.38 1033.58 1033.38 1033.11 1032.82
1026.01 1025.76 1025.66 1025.42 1025.20 1025.00 1025.87 1026.15 1026.48 1026.11 1025.67 1025.69 1025.67 1025.52 1025.20 1024.81 1025.13 1025.40 1025.43 1025.32 1025.38 1025.46 1025.73 1026.11 1026.12 1026.30 1026.55 1026.66 1026.68 1027.08 1027.72 1028.65 1030.09 1031.47 1032.79 1033.72 1033.76 1034.25 1034.45 1034.45 1034.54 1034.23 1033.86 1033.33
1026.05 1025.78 1025.58 1025.17 1024.95 1024.67 1024.95 1025.13 1025.37 1025.66 1025.49 1024.94 1024.94 1025.01 1024.74 1024.42 1025.03 1025.65 1025.22 1025.16 1025.16 1025.47 1026.03 1026.62 1027.10 1027.04 1027.16 1027.20 1027.63 1027.64 1028.46 1029.43 1031.01 1032.95 1034.44 1035.07 1035.35 1035.28 1035.23 1035.28 1035.43 1034.99 1034.66 1033.99
1025.69 1025.37 1025.00 1024.77 1024.49 1024.35 1024.54 1024.68 1024.54 1024.78 1024.85 1024.78 1024.93 1025.10 1025.13 1025.07 1025.41 1025.64 1025.52 1025.46 1025.56 1025.74 1026.59 1027.36 1027.71 1027.98 1028.19 1028.74 1029.37 1029.85 1030.27 1031.57 1033.36 1034.48 1036.04 1036.60 1036.54 1036.22 1035.87 1036.43 1037.22 1035.97 1035.65 1035.43
1025.61 1025.21 1024.85 1024.53 1024.34 1023.98 1024.29 1024.46 1024.27 1024.60 1024.80 1024.85 1024.82 1024.94 1025.28 1025.47 1025.45 1025.69 1025.85 1026.16 1026.35 1026.67 1027.43 1028.15 1028.27 1028.83 1029.41 1030.59 1032.30 1032.91 1033.58 1034.77 1036.02 1036.92 1037.65 1038.22 1037.29 1036.84 1037.16 1037.71 1036.89 1036.68 1036.31 1035.87
1025.42 1024.92 1024.44 1024.27 1023.97 1023.82 1023.91 1024.42 1024.30 1024.21 1024.75 1025.12 1025.32 1025.59 1025.51 1025.30 1025.17 1025.31 1025.81 1026.21 1026.44 1026.84 1027.85 1028.70 1028.93 1029.65 1030.71 1032.21 1033.96 1034.91 1036.19 1037.17 1037.80 1039.00 1039.16 1038.91 1038.54 1038.33 1038.10 1037.86 1037.63 1037.36 1037.07 1036.61
1025.26 1024.82 1024.30 1023.93 1023.71 1023.45 1023.36 1024.12 1024.29 1024.49 1024.76 1025.19 1025.55 1025.96 1025.87 1025.55 1025.43 1025.25 1025.67 1026.30 1026.39 1027.02 1027.64 1028.59 1029.49 1030.68 1031.87 1033.45 1035.30 1036.42 1037.69 1038.20 1039.00 1039.66 1039.76 1039.55 1039.18 1038.91 1038.59 1038.26 1038.03 1037.80 1037.51 1037.20
1025.08 1024.61 1024.36 1024.11 1023.71 1023.70 1023.68 1024.24 1024.30 1024.59 1024.74 1025.14 1026.88 1026.59 1026.55 1026.60 1025.75 1025.47 1025.55 1025.95 1026.46 1027.27 1028.29 1029.42 1030.63 1031.90 1033.10 1035.09 1036.51 1037.76 1039.19 1039.20 1040.13 1040.72 1040.38 1040.13 1039.86 1039.63 1039.35 1038.86 1038.51 1038.26 1038.05 1037.78
1025.08 1024.63 1024.65 1024.24 1023.80 1024.05 1024.31 1024.47 1024.75 1024.77 1025.08 1025.44 1026.78 1027.12 1027.57 1027.07 1026.56 1026.36 1026.30 1026.57 1027.40 1028.44 1029.60 1030.91 1032.51 1033.39 1034.70 1036.53 1037.68 1039.51 1040.26 1040.63 1040.77 1040.90 1040.78 1040.79 1040.53 1040.10 1039.80 1039.58 1039.26 1038.97 1038.80 1038.51
1025.00 1024.83 1024.93 1024.45 1023.99 1024.10 1024.66 1024.90 1024.97 1024.92 1025.08 1025.67 1027.04 1028.18 1028.21 1027.66 1027.36 1027.36 1027.63 1028.01 1028.82 1029.92 1031.17 1032.77 1033.91 1034.89 1035.62 1037.66 1039.63 1040.83 1040.89 1040.88 1041.00 1040.99 1040.76 1040.69 1040.42 1040.18 1040.07 1040.05 1039.73 1039.46 1039.33 1039.40
1024.97 1024.97 1025.19 1024.83 1024.82 1025.09 1025.89 1026.86 1026.02 1025.01 1024.95 1025.87 1027.52 1028.38 1028.51 1028.26 1028.06 1028.49 1028.95 1029.36 1030.36 1031.02 1032.50 1033.98 1035.35 1036.17 1036.65 1038.96 1040.80 1041.23 1041.16 1041.00 1040.88 1040.68 1040.69 1040.77 1040.44 1040.34 1040.08 1039.99 1039.85 1039.66 1039.69 1039.82
1025.01 1025.04 1025.08 1025.01 1025.33 1025.78 1026.47 1026.97 1025.94 1025.72 1026.38 1027.51 1029.07 1029.83 1029.55 1029.64 1029.41 1029.57 1029.92 1030.80 1031.48 1032.51 1033.81 1035.29 1036.43 1037.38 1038.64 1040.73 1041.55 1041.46 1041.25 1040.96 1040.88 1040.62 1040.44 1040.41 1040.29 1040.13 1040.00 1039.92 1039.85 1039.85 1039.96 1039.95
1024.94 1025.00 1025.45 1025.97 1026.54 1027.16 1027.33 1026.98 1026.98 1027.09 1028.06 1030.14 1031.89 1032.33 1031.65 1031.11 1030.69 1030.47 1030.82 1031.28 1032.89 1033.74 1035.19 1036.56 1037.40 1039.32 1040.82 1041.83 1041.83 1041.60 1041.42 1041.34 1041.03 1040.59 1040.26 1040.17 1040.15 1040.07 1039.92 1039.84 1039.82 1040.08 1039.92 1039.76
1025.38 1025.63 1026.48 1027.87 1028.45 1027.70 1027.25 1027.58 1028.71 1030.08 1031.47 1032.83 1034.46 1034.22 1033.35 1032.90 1031.86 1031.46 1031.93 1032.70 1033.85 1035.13 1036.86 1037.50 1039.24 1041.44 1041.99 1041.90 1041.78 1041.57 1041.31 1040.96 1040.62 1040.48 1040.24 1040.06 1039.94 1039.89 1039.76 1039.77 1039.72 1039.63 1039.55 1039.47
1026.47 1027.54 1028.89 1029.55 1028.91 1028.84 1030.44 1032.33 1033.71 1034.99 1036.03 1036.61 1036.50 1035.87 1035.09 1033.82 1033.33 1032.73 1033.07 1034.09 1034.94 1036.25 1037.83 1038.79 1040.91 1042.30 1042.52 1042.17 1041.87 1041.53 1041.24 1040.94 1040.70 1040.46 1040.18 1039.99 1039.88 1039.71 1039.58 1039.45 1039.38 1039.31 1039.24 1039.17
1028.15 1028.90 1030.18 1030.96 1032.77 1033.66 1035.24 1037.93 1038.38 1038.93 1039.38 1038.66 1038.03 1037.31 1036.53 1035.28 1034.21 1034.03 1034.51 1035.35 1036.27 1038.07 1038.87 1040.20 1042.18 1042.85 1042.62 1042.28 1041.90 1041.56 1041.23 1040.97 1040.69 1040.42 1040.18 1039.95 1039.75 1039.57 1039.48 1039.33 1039.20 1039.06 1039.00 1038.95
1029.37 1031.02 1033.97 1035.95 1038.43 1039.43 1041.54 1042.57 1042.11 1041.67 1040.64 1039.75 1039.31 1038.40 1037.44 1036.20 1035.59 1035.76 1036.25 1037.17 1038.53 1039.20 1040.56 1042.28 1043.26 1043.05 1042.68 1042.35 1041.93 1041.63 1041.34 1041.03 1040.85 1040.54 1040.32 1040.11 1039.77 1039.57 1039.31 1039.26 1039.15 1039.10 1038.98 1038.81
1033.64 1036.61 1039.98 1041.42 1043.65 1044.02 1043.97 1043.80 1043.20 1042.22 1041.19 1040.51 1039.93 1039.37 1038.77 1038.04 1037.77 1038.09 1038.79 1039.91 1040.12 1041.34 1042.46 1043.43 1043.52 1043.21 1042.93 1042.52 1042.17 1041.89 1041.56 1041.29 1041.12 1040.83 1040.62 1040.38 1040.10 1039.76 1039.64 1039.46 1039.28 1039.12 1038.99 1038.81
1037.66 1040.14 1043.93 1044.77 1044.86 1044.56 1044.18 1043.59 1042.92 1041.97 1041.27 1040.94 1040.64 1040.49 1040.37 1040.32 1040.46 1040.75 1041.19 1041.88 1042.83 1043.28 1043.69 1043.75 1043.57 1043.24 1043.00 1042.73 1042.42 1042.23 1041.92 1041.63 1041.42 1041.18 1040.97 1040.70 1040.41 1040.15 1039.91 1039.63 1039.38 1039.18 1038.99 1038.80
1040.93 1043.81 1045.21 1045.13 1045.03 1044.79 1044.20 1043.53 1042.88 1041.97 1041.59 1041.29 1041.91 1042.60 1043.34 1043.70 1043.58 1043.58 1044.13 1044.23 1044.58 1044.48 1044.09 1043.84 1043.61 1043.48 1043.28 1043.04 1042.74 1042.45 1042.13 1041.86 1041.64 1041.36 1041.15 1040.86 1040.61 1040.38 1040.15 1039.74 1039.40 1039.16 1039.02 1038.85
1044.61 1046.22 1045.55 1045.39 1045.19 1044.98 1044.45 1043.62 1042.82 1042.06 1042.08 1042.98 1043.47 1045.35 1046.38 1045.92 1045.97 1046.22 1045.51 1045.47 1045.15 1044.59 1044.02 1043.78 1043.60 1043.58 1043.37 1043.11 1042.78 1042.49 1042.19 1041.94 1041.71 1041.43 1041.16 1040.93 1040.62 1040.40 1040.14 1039.84 1039.31 1039.07 1038.75 1038.61
Thickness
5456 5452 5450 5445 5443 5438 5433 5417 5417 5415 5409 5382 5347 5329 5330 5343 5330 5320 5306 5296 5284 5269 5262 5248 5238 5230 5232 5243 5241 5225 5206 5185 5198 5232 5214 5229 5217 5219 5230 5248 5294 5298 5286 5248
5445 5441 5437 5431 5427 5422 5410 5392 5385 5397 5388 5355 5337 5330 5323 5316 5310 5303 5292 5283 5276 5264 5246 5228 5231 5232 5240 5238 5237 5215 5214 5190 5184 5211 5195 5196 5195 5200 5212 5229 5241 5243 5271 5245
5435 5430 5424 5418 5413 5407 5396 5380 5371 5366 5353 5331 5321 5310 5299 5294 5296 5287 5277 5269 5261 5248 5236 5227 5216 5224 5233 5235 5236 5245 5233 5184 5180 5165 5179 5178 5178 5184 5200 5222 5244 5219 5217 5215
5424 5417 5411 5405 5400 5393 5382 5363 5352 5338 5322 5317 5299 5288 5281 5279 5274 5272 5261 5256 5242 5225 5223 5219 5214 5218 5220 5228 5233 5225 5214 5194 5185 5201 5190 5180 5177 5164 5180 5190 5197 5206 5196 5198
5411 5406 5398 5392 5387 5378 5361 5346 5334 5318 5304 5292 5284 5274 5267 5268 5265 5253 5245 5232 5233 5213 5203 5202 5210 5208 5205 5209 5220 5211 5204 5193 5194 5196 5199 5188 5173 5168 5162 5173 5176 5182 5185 5187
5400 5395 5388 5381 5373 5365 5345 5326 5317 5307 5305 5279 5267 5263 5262 5264 5256 5251 5244 5231 5219 5215 5219 5212 5206 5205 5208 5209 5197 5204 5198 5175 5170 5171 5200 5190 5160 5148 5147 5154 5157 5167 5168 5172
5391 5384 5377 5368 5358 5348 5334 5317 5306 5292 5294 5280 5278 5274 5261 5259 5247 5234 5234 5223 5206 5218 5217 5212 5210 5200 5201 5198 5197 5202 5185 5188 5189 5163 5182 5146 5145 5154 5154 5144 5148 5154 5164 5167
5381 5374 5364 5354 5344 5331 5317 5300 5285 5278 5276 5274 5268 5258 5252 5255 5238 5225 5219 5221 5216 5212 5212 5197 5198 5205 5202 5201 5199 5190 5190 5195 5166 5161 5138 5141 5140 5131 5133 5129 5140 5143 5150 5159
5368 5359 5349 5338 5327 5315 5305 5293 5278 5268 5263 5263 5258 5251 5246 5243 5222 5212 5217 5217 5210 5210 5205 5191 5175 5198 5201 5206 5190 5197 5191 5183 5177 5137 5133 5149 5131 5132 5131 5126 5133 5135 5137 5146
5355 5346 5336 5325 5314 5302 5291 5281 5271 5262 5253 5246 5238 5236 5227 5215 5203 5197 5203 5205 5205 5203 5193 5189 5177 5174 5183 5185 5185 5177 5181 5161 5135 5148 5079 5116 5114 5119 5126 5111 5112 5126 5129 5130
5340 5330 5320 5309 5299 5289 5278 5270 5263 5252 5239 5228 5227 5220 5211 5202 5202 5198 5192 5192 5187 5185 5175 5171 5165 5166 5154 5148 5128 5133 5142 5130 5127 5104 5081 5110 5109 5118 5122 5099 5115 5115 5119 5124
5325 5315 5305 5295 5285 5276 5270 5258 5252 5242 5229 5220 5210 5201 5197 5197 5198 5194 5187 5184 5179 5182 5166 5151 5162 5167 5141 5119 5132 5110 5126 5099 5094 5082 5083 5081 5093 5088 5096 5095 5100 5105 5107 5113
5308 5298 5289 5281 5273 5268 5261 5250 5239 5227 5215 5202 5198 5189 5186 5185 5186 5188 5177 5173 5178 5161 5157 5159 5155 5144 5139 5136 5110 5099 5092 5086 5084 5083 5082 5084 5088 5092 5094 5096 5096 5100 5103 5105
5293 5283 5273 5267 5263 5256 5249 5236 5225 5213 5201 5198 5173 5173 5172 5170 5176 5179 5178 5177 5172 5164 5153 5136 5137 5133 5126 5102 5095 5089 5076 5083 5063 5059 5070 5075 5073 5080 5081 5088 5091 5094 5096 5100
5276 5269 5260 5256 5252 5241 5231 5219 5207 5197 5192 5184 5167 5164 5158 5162 5165 5166 5166 5164 5156 5150 5139 5127 5117 5118 5103 5086 5083 5067 5062 5062 5067 5059 5063 5063 5060 5065 5072 5074 5080 5083 5086 5091
5262 5257 5250 5243 5237 5227 5215 5202 5192 5185 5179 5172 5158 5148 5146 5151 5153 5152 5150 5147 5140 5129 5115 5105 5099 5098 5089 5067 5057 5053 5055 5055 5052 5058 5057 5057 5061 5058 5060 5059 5064 5072 5074 5077
5251 5245 5236 5230 5220 5210 5190 5171 5172 5175 5172 5165 5150 5141 5141 5141 5143 5138 5134 5129 5118 5117 5105 5094 5085 5080 5082 5057 5045 5048 5048 5050 5050 5051 5053 5057 5054 5052 5054 5056 5059 5064 5067 5065
5241 5233 5223 5213 5201 5189 5172 5166 5166 5163 5156 5146 5123 5123 5129 5126 5129 5127 5121 5106 5104 5101 5091 5083 5072 5071 5062 5039 5037 5041 5043 5048 5051 5050 5050 5051 5050 5053 5053 5055 5056 5059 5057 5059
5233 5222 5208 5197 5181 5166 5159 5155 5151 5147 5139 5114 5101 5093 5103 5111 5116 5119 5110 5108 5096 5095 5078 5067 5069 5052 5034 5030 5031 5034 5036 5035 5040 5045 5050 5049 5050 5053 5054 5054 5053 5051 5057 5059
5220 5208 5192 5167 5157 5153 5152 5141 5129 5117 5105 5092 5076 5082 5087 5091 5100 5106 5101 5090 5085 5069 5063 5063 5043 5025 5026 5030 5029 5029 5033 5038 5041 5043 5045 5046 5048 5049 5051 5050 5049 5050 5051 5056
5203 5182 5160 5149 5146 5140 5120 5097 5083 5071 5050 5059 5059 5063 5064 5079 5081 5092 5089 5071 5071 5050 5058 5044 5026 5009 5015 5022 5024 5027 5030 5035 5036 5038 5040 5042 5042 5043 5045 5048 5050 5051 5052 5053
5178 5164 5145 5133 5111 5091 5072 5033 5045 5033 5030 5040 5037 5048 5053 5061 5075 5077 5073 5063 5057 5038 5047 5026 5002 5008 5011 5017 5021 5024 5028 5030 5032 5034 5036 5037 5039 5039 5039 5041 5043 5046 5048 5049
5162 5139 5102 5086 5055 5038 5008 4993 4994 4998 5023 5028 5033 5034 5043 5054 5063 5054 5054 5044 5040 5044 5016 5008 5000 5007 5013 5014 5018 5021 5022 5025 5026 5029 5030 5032 5034 5035 5037 5037 5038 5038 5039 5042
5114 5081 5053 5028 5002 5013 5003 5008 5012 5019 5023 5027 5028 5027 5035 5044 5038 5036 5026 5025 5024 4999 4995 4990 4990 5000 5006 5010 5013 5014 5016 5018 5018 5021 5022 5024 5027 5029 5030 5031 5032 5033 5034 5036
5075 5060 5017 5005 5019 5020 5012 5016 5017 5022 5025 5024 5022 5020 5021 5017 5013 5022 5014 4999 4995 4997 4992 4994 4998 5001 5003 5004 5007 5007 5009 5011 5011 5013 5013 5016 5018 5020 5022 5024 5026 5027 5029 5030
5063 5037 5011 5026 5012 5006 5006 5005 5010 5020 5021 5022 5011 4985 4980 4983 4980 4987 4979 4972 4977 4983 4989 4992 4994 4994 4996 4997 4999 5001 5002 5003 5004 5006 5007 5009 5011 5012 5012 5015 5018 5020 5021 5022
5037 5017 5029 5021 5011 5008 5011 5014 5018 5021 5017 4991 4987 4974 4970 4965 4949 4952 4975 4964 4978 4983 4988 4990 4989 4987 4988 4987 4990 4994 4996 4996 4997 4999 5000 5001 5003 5002 5003 5005 5011 5012 5014 5014